Tracking 22881 objects as of 19-Apr-2021
HD Live streaming from Space Station
objects crossing your sky now

ANIK A2 (TELESAT 2)

Track ANIK A2 (TELESAT 2) now!
ANIK A2 (TELESAT 2) is classified as:


NORAD ID: 6437
Int'l Code: 1973-023A
Perigee: 35,868.3 km
Apogee: 35,981.7 km
Inclination: 11.2 °
Period: 1,442.8 minutes
Semi major axis: 42295 km
RCS: 3.1458 m2 (large)
Launch date: April 20, 1973
Source: Canada (CA)
Launch site: AIR FORCE EASTERN TEST RANGE (AFETR)
aabbcc
Your satellite tracking list
Your tracking list is empty




NASA's NSSDC Master Catalog

Two Line Element Set (TLE):
1 06437U 73023A   21108.83837331 -.00000165  00000-0  00000-0 0  9996
2 06437  11.1821 314.0997 0013397  38.7449 146.4279  0.99805412 28334
Source of the keplerian elements: AFSPC